Voltar ao catálogo

STARLINK-31989

AtivoComunicaçõesVLEO
NORAD 59959·PAYLOAD·🇺🇸 United States

Lançado Jun 5, 2024 de Cape Canaveral Space Force Station

Loading…

Próximas Passagens (próximas 24 horas)

TLE

AtualizadoSource: CelesTrak SupGP

Época: Sep 14, 2026, 22:40 UTC

1 59959C 24107Q   26257.94493056  .00045240  00000+0  13367-2 0  2576
2 59959  53.1576 263.4112 0001281  89.3527 331.1629 15.34367192    18

Acompanhe STARLINK-31989 em tempo real com AllMySat

Download on the App Store